STARLINK-1009 (44715 NORAD) Tracking and Keplerian Element Data

This shows tracking and keplerian element data for the satellite.

Feedback or suggestion? Click here.




ElementValue
Catalog44715
NameSTARLINK-1009
Epoch Orbit2235
Epoch Day93.91667824
Epoch Year2020
RAAN193.6667
Inclination52.9934
Eccentricity0.0001244
Argument of Perigee88.313
Mean Anonmoly224.1819
Mean Motion15.0560466
Decay Rate-0.00037084
L11 44715U 19074C 20093.91667824 -.00037084 00000-0 -25376-2 0 9998
L22 44715 52.9934 193.6667 0001244 88.3130 224.1819 15.05604660 22359

Live tracking and technical data element details for STARLINK-1009 (NORAD 44715). STARLINK-1009 can be tracked NOW for your location showing map with azimuth and elevation plus other details from your city location.

Track the satellite on the map from your city or location and see movement details for azimuth, elevation, latitude, longitude, range, height, and movement on the map or in text.







IsCatalogInMostPopularTable: catalog: 44715, numindb: 28
Update: records affected: 1



GetName: 44715 STARLINK-1009

Hit Count: updated at: Sun, 05 Apr 2020 20:29:52 GMT